Weather History for KCQW - November, 2012

Change the Weather History Date:

Sunday, November 18, 2012

  Actual Average (KFLO) Record (KFLO)
Temperature  
Mean Temperature 50 °F 55 °F  
Max Temperature 55 °F 67 °F 83 °F (1957)
Min Temperature 44 °F 43 °F 23 °F (2014)
Degree Days  
Heating Degree Days 16 11  
Month to date heating degree days 154  
Since 1 July heating degree days 271  
Cooling Degree Days 0 0  
Month to date cooling degree days 16  
Year to date cooling degree days 2058  
Moisture  
Dew Point 43 °F    
Average Humidity 78    
Maximum Humidity 87    
Minimum Humidity 62    
Precipitation  
Precipitation 0.00 in 0.09 in 1.07 in (1974)
Month to date precipitation 1.57  
Year to date precipitation 38.80  
Sea Level Pressure  
Sea Level Pressure 30.35 in    
Wind  
Wind Speed 21 mph (NNE)    
Max Wind Speed 37 mph    
Max Gust Speed 52 mph    
Visibility 10 miles    
Events Rain    
T = Trace of Precipitation, MM = Missing Value Source: NWS Daily Summary

Daily Weather History Graph

Daily Weather History Graph

Search for Another Location

Airport or City:

Trip Planner

Search our weather history database for the weather conditions in past years. The results will help you decide how hot, cold, wet, or windy it might be!

Date:

Astronomy

Nov. 18, 2012 Rise Set
Actual Time 6:57 AM EST 5:12 PM EST
Civil Twilight 6:30 AM EST 5:39 PM EST
Nautical Twilight 5:59 AM EST 6:10 PM EST
Astronomical Twilight 5:29 AM EST 6:40 PM EST
Moon 11:25 AM EST (11/18) 10:27 PM EST (11/18)
Length of Visible Light 11h 09m
Length of Day
10h 15m
Waxing Crescent, 30% of the Moon is Illuminated
Nov 18
Waxing Crescent
Nov 20
First Quarter
Nov 28
Full
Dec 6
Last Quarter
Dec 13
New

Hourly Weather History & Observations

Time (EST) Temp. Windchill Dew Point Humidity Pressure Visibility Wind Dir Wind Speed Gust Speed Precip Events Conditions
12:15 AM 48.2 °F - 35.6 °F 62% 30.41 in 10.0 mi NNE 17.3 mph 29.9 mph N/A   Mostly Cloudy
12:55 AM 46.4 °F 39.0 °F 35.6 °F 66% 30.40 in 10.0 mi NNE 19.6 mph 32.2 mph N/A   Mostly Cloudy
1:15 AM 46.4 °F 39.0 °F 35.6 °F 66% 30.40 in 10.0 mi NNE 19.6 mph 34.5 mph N/A   Mostly Cloudy
1:55 AM 46.4 °F 38.5 °F 37.4 °F 71% 30.39 in 10.0 mi NNE 21.9 mph 27.6 mph N/A   Mostly Cloudy
2:15 AM 46.4 °F 38.7 °F 37.4 °F 71% 30.38 in 10.0 mi NNE 20.7 mph 29.9 mph N/A   Scattered Clouds
2:35 AM 46.4 °F 38.7 °F 37.4 °F 71% 30.39 in 10.0 mi NNE 20.7 mph 32.2 mph N/A   Partly Cloudy
2:55 AM 44.6 °F 36.6 °F 37.4 °F 76% 30.38 in 10.0 mi NNE 19.6 mph 35.7 mph N/A   Clear
3:15 AM 44.6 °F 36.1 °F 37.4 °F 76% 30.38 in 10.0 mi North 21.9 mph 31.1 mph N/A   Partly Cloudy
3:35 AM 44.6 °F 37.8 °F 37.4 °F 76% 30.38 in 10.0 mi North 15.0 mph 26.5 mph N/A   Mostly Cloudy
3:55 AM 44.6 °F 37.2 °F 37.4 °F 76% 30.38 in 10.0 mi North 17.3 mph 25.3 mph N/A   Mostly Cloudy
4:15 AM 44.6 °F 37.4 °F 39.2 °F 81% 30.39 in 10.0 mi North 16.1 mph 28.8 mph N/A   Mostly Cloudy
4:55 AM 44.6 °F 37.2 °F 39.2 °F 81% 30.39 in 10.0 mi North 17.3 mph 23.0 mph N/A   Mostly Cloudy
5:15 AM 44.6 °F 38.1 °F 39.2 °F 81% 30.39 in 10.0 mi North 13.8 mph 20.7 mph N/A   Mostly Cloudy
5:35 AM 44.6 °F 36.9 °F 39.2 °F 81% 30.39 in 10.0 mi North 18.4 mph 26.5 mph N/A   Scattered Clouds
5:55 AM 44.6 °F 36.9 °F 39.2 °F 81% 30.39 in 10.0 mi North 18.4 mph 25.3 mph N/A   Scattered Clouds
6:15 AM 44.6 °F 36.9 °F 39.2 °F 81% 30.39 in 10.0 mi North 18.4 mph 27.6 mph N/A   Overcast
6:35 AM 44.6 °F 37.2 °F 39.2 °F 81% 30.39 in 10.0 mi North 17.3 mph 33.4 mph N/A   Overcast
7:15 AM 44.6 °F 36.9 °F 41.0 °F 87% 30.39 in 10.0 mi North 18.4 mph 31.1 mph N/A   Overcast
7:55 AM 46.4 °F 38.5 °F 42.8 °F 87% 30.40 in 10.0 mi NNE 21.9 mph 29.9 mph N/A   Overcast
8:15 AM 46.4 °F 39.8 °F 42.8 °F 87% 30.41 in 10.0 mi North 16.1 mph 32.2 mph N/A   Overcast
8:35 AM 46.4 °F 39.0 °F 42.8 °F 87% 30.40 in 10.0 mi North 19.6 mph 36.8 mph N/A   Overcast
8:55 AM 48.2 °F - 42.8 °F 82% 30.40 in 10.0 mi North 28.8 mph 38.0 mph N/A   Overcast
9:15 AM 48.2 °F - 42.8 °F 82% 30.40 in 10.0 mi NNE 20.7 mph 38.0 mph N/A   Overcast
9:35 AM 48.2 °F - 44.6 °F 87% 30.40 in 10.0 mi North 25.3 mph 38.0 mph N/A   Overcast
9:55 AM 48.2 °F - 44.6 °F 87% 30.40 in 10.0 mi NNE 31.1 mph 41.4 mph N/A   Overcast
10:15 AM 48.2 °F - 44.6 °F 87% 30.40 in 10.0 mi NNE 26.5 mph 44.9 mph N/A   Overcast
10:35 AM 48.2 °F - 44.6 °F 87% 30.40 in 10.0 mi North 24.2 mph 39.1 mph N/A   Overcast
10:55 AM 50.0 °F - 44.6 °F 82% 30.38 in 10.0 mi NNE 27.6 mph 38.0 mph N/A   Overcast
11:15 AM 50.0 °F - 44.6 °F 82% 30.38 in 10.0 mi NNE 27.6 mph 42.6 mph N/A   Overcast
11:35 AM 51.8 °F - 44.6 °F 76% 30.37 in 10.0 mi NNE 25.3 mph 42.6 mph N/A   Overcast
11:55 AM 51.8 °F - 44.6 °F 76% 30.36 in 10.0 mi NNE 25.3 mph 46.0 mph N/A   Overcast
12:15 PM 51.8 °F - 44.6 °F 76% 30.35 in 10.0 mi NNE 28.8 mph 39.1 mph N/A   Overcast
12:35 PM 51.8 °F - 44.6 °F 76% 30.35 in 10.0 mi NNE 17.3 mph 43.7 mph N/A   Overcast
12:55 PM 53.6 °F - 44.6 °F 72% 30.34 in 10.0 mi NNE 25.3 mph 33.4 mph N/A   Overcast
1:15 PM 53.6 °F - 46.4 °F 77% 30.33 in 9.0 mi NNE 24.2 mph 35.7 mph N/A   Mostly Cloudy
1:35 PM 53.6 °F - 44.6 °F 72% 30.32 in 10.0 mi NNE 24.2 mph 31.1 mph N/A   Overcast
1:55 PM 53.6 °F - 46.4 °F 77% 30.32 in 10.0 mi NNE 18.4 mph 31.1 mph N/A   Overcast
2:15 PM 53.6 °F - 46.4 °F 77% 30.31 in 10.0 mi North 23.0 mph 35.7 mph N/A   Overcast
2:35 PM 53.6 °F - 46.4 °F 77% 30.31 in 10.0 mi North 21.9 mph 34.5 mph N/A   Overcast
2:55 PM 53.6 °F - 46.4 °F 77% 30.30 in 10.0 mi North 20.7 mph 33.4 mph N/A   Overcast
3:15 PM 55.4 °F - 46.4 °F 72% 30.29 in 10.0 mi North 25.3 mph 33.4 mph N/A   Overcast
3:35 PM 55.4 °F - 46.4 °F 72% 30.29 in 10.0 mi North 26.5 mph 34.5 mph N/A   Overcast
3:55 PM 55.4 °F - 46.4 °F 72% 30.29 in 10.0 mi NNE 29.9 mph 39.1 mph N/A   Mostly Cloudy
4:15 PM 55.4 °F - 44.6 °F 67% 30.29 in 10.0 mi NNE 21.9 mph 32.2 mph N/A   Mostly Cloudy
4:35 PM 55.4 °F - 44.6 °F 67% 30.29 in 10.0 mi NNE 23.0 mph 39.1 mph N/A Rain Light Rain
4:55 PM 53.6 °F - 46.4 °F 77% 30.29 in 10.0 mi NNE 23.0 mph 39.1 mph N/A   Overcast
5:15 PM 55.4 °F - 44.6 °F 67% 30.29 in 10.0 mi NNE 25.3 mph 41.4 mph N/A   Scattered Clouds
5:55 PM 53.6 °F - 44.6 °F 72% 30.30 in 10.0 mi NNE 31.1 mph 39.1 mph N/A   Mostly Cloudy
6:15 PM 53.6 °F - 44.6 °F 72% 30.30 in 10.0 mi NNE 36.8 mph 48.3 mph N/A   Overcast
6:35 PM 53.6 °F - 44.6 °F 72% 30.31 in 10.0 mi North 36.8 mph 51.8 mph N/A   Overcast
6:55 PM 53.6 °F - 46.4 °F 77% 30.31 in 9.0 mi NNE 32.2 mph 51.8 mph N/A   Overcast
7:15 PM 53.6 °F - 46.4 °F 77% 30.31 in 10.0 mi North 31.1 mph 44.9 mph N/A   Overcast
7:35 PM 53.6 °F - 46.4 °F 77% 30.31 in 10.0 mi North 24.2 mph 38.0 mph N/A   Overcast
7:55 PM 51.8 °F - 46.4 °F 82% 30.31 in 10.0 mi North 25.3 mph 34.5 mph N/A   Mostly Cloudy
8:15 PM 51.8 °F - 46.4 °F 82% 30.31 in 10.0 mi North 24.2 mph 36.8 mph N/A   Scattered Clouds
8:35 PM 51.8 °F - 46.4 °F 82% 30.31 in 10.0 mi North 24.2 mph 39.1 mph N/A   Mostly Cloudy
8:55 PM 51.8 °F - 46.4 °F 82% 30.31 in 10.0 mi NNE 27.6 mph 38.0 mph N/A   Overcast
9:15 PM 51.8 °F - 46.4 °F 82% 30.31 in 10.0 mi NNE 24.2 mph 46.0 mph N/A   Overcast
9:35 PM 51.8 °F - 46.4 °F 82% 30.31 in 10.0 mi North 25.3 mph 43.7 mph N/A   Overcast
9:55 PM 51.8 °F - 46.4 °F 82% 30.30 in 10.0 mi North 18.4 mph 32.2 mph N/A   Overcast
10:15 PM 51.8 °F - 46.4 °F 82% 30.30 in 10.0 mi North 17.3 mph 29.9 mph N/A   Overcast
10:55 PM 51.8 °F - 46.4 °F 82% 30.30 in 10.0 mi North 16.1 mph 28.8 mph N/A   Overcast
11:15 PM 51.8 °F - 46.4 °F 82% 30.30 in 10.0 mi North 24.2 mph 38.0 mph N/A   Overcast
11:35 PM 51.8 °F - 44.6 °F 76% 30.30 in 10.0 mi North 18.4 mph 28.8 mph N/A   Overcast
11:55 PM 51.8 °F - 44.6 °F 76% 30.29 in 10.0 mi North 27.6 mph 38.0 mph N/A   Overcast